Fort Benning, AL

5:46 AM CDT on October 22, 2017 (GMT -0500)
Lawson Army Air Field

Weather History for KLSF - September, 2013

Change the Weather History Date:

Monday, September 23, 2013

  Actual Average Record
Temperature  
Mean Temperature 68 °F -  
Max Temperature 77 °F 81 °F 95 °F (2010)
Min Temperature 59 °F 60 °F 44 °F (1999)
Cooling Degree Days 3    
Growing Degree Days 18 (Base 50)    
Moisture  
Dew Point 65 °F    
Average Humidity 98    
Maximum Humidity 100    
Minimum Humidity 74    
Precipitation  
Precipitation 0.07 in - - ()
Sea Level Pressure  
Sea Level Pressure 29.91 in    
Wind  
Wind Speed 2 mph (ENE)    
Max Wind Speed 10 mph    
Max Gust Speed -    
Visibility 4 miles    
Events Fog , Rain    
Averages and records for this station are not official NWS values.
T = Trace of Precipitation, MM = Missing Value Source: NWS Daily Summary

Daily Weather History Graph

Daily Weather History Graph

Search for Another Location

Airport or City:

Trip Planner

Search our weather history database for the weather conditions in past years. The results will help you decide how hot, cold, wet, or windy it might be!

Date:

Astronomy

Sep. 23, 2013 Rise Set
Actual Time 7:28 AM EDT 7:34 PM EDT
Civil Twilight 7:04 AM EDT 7:59 PM EDT
Nautical Twilight 6:35 AM EDT 8:27 PM EDT
Astronomical Twilight 6:07 AM EDT 8:56 PM EDT
Moon 10:22 PM EDT (9/23) 11:31 AM EDT (9/23)
Length of Visible Light 12h 54m
Length of Day
12h 06m
Waning Gibbous, 81% of the Moon is Illuminated
Sep 23
Waning Gibbous
Sep 26
Last Quarter
Oct 4
New
Oct 11
First Quarter
Oct 18
Full

Hourly Weather History & Observations

Time (EDT) Temp. Dew Point Humidity Pressure Visibility Wind Dir Wind Speed Gust Speed Precip Events Conditions
12:13 AM 64.4 °F 64.4 °F 100% 29.85 in 0.8 mi WNW 2.3 mph - N/A   Clear
12:18 AM 64.4 °F 64.4 °F 100% 29.85 in 0.8 mi NW 1.2 mph - N/A   Clear
12:20 AM 64.4 °F 64.4 °F 100% 29.85 in 0.5 mi Calm Calm - N/A Fog Fog
12:25 AM 64.4 °F 64.4 °F 100% 29.85 in 0.2 mi Calm Calm - N/A Fog Fog
12:30 AM 64.4 °F 64.4 °F 100% 29.85 in 0.2 mi Calm Calm - N/A Fog Fog
12:40 AM 66.2 °F 66.2 °F 100% 29.85 in 0.5 mi Calm Calm - N/A Fog Fog
12:55 AM 64.4 °F 64.4 °F 100% 29.85 in 0.2 mi Calm Calm - N/A Fog Fog
12:58 AM 64.4 °F 64.4 °F 100% 29.86 in 0.2 mi Calm Calm - N/A Fog Fog
1:03 AM 64.4 °F 64.4 °F 100% 29.86 in 0.5 mi Calm Calm - N/A Fog Fog
1:08 AM 64.4 °F 64.4 °F 100% 29.86 in 0.8 mi Calm Calm - N/A   Clear
1:10 AM 64.4 °F 64.4 °F 100% 29.86 in 0.8 mi Calm Calm - N/A   Light Drizzle
1:15 AM 64.4 °F 64.4 °F 100% 29.86 in 0.5 mi Calm Calm - N/A Fog Light Drizzle
1:19 AM 64.4 °F 64.4 °F 100% 29.85 in 0.5 mi Calm Calm - N/A Fog Fog
1:29 AM 64.4 °F 64.4 °F 100% 29.85 in 0.8 mi Calm Calm - N/A   Clear
1:32 AM 64.4 °F 64.4 °F 100% 29.86 in 0.5 mi Calm Calm - N/A Fog Fog
1:42 AM 64.4 °F 64.4 °F 100% 29.86 in 0.2 mi Calm Calm - N/A Fog Fog
1:52 AM 64.4 °F 64.4 °F 100% 29.86 in 0.5 mi Calm Calm - N/A Fog Fog
1:58 AM 64.0 °F 64.0 °F 100% 29.86 in 0.5 mi Calm Calm - 0.00 in Fog Fog
2:08 AM 62.6 °F 62.6 °F 100% 29.86 in 0.5 mi Calm Calm - N/A Fog Fog
2:40 AM 62.6 °F 62.6 °F 100% 29.86 in 0.5 mi Calm Calm - N/A Fog Fog
2:45 AM 62.6 °F 62.6 °F 100% 29.87 in 0.2 mi Calm Calm - N/A Fog Fog
2:58 AM 63.5 °F 63.5 °F 100% 29.86 in 0.2 mi Calm Calm - N/A Fog Fog
3:08 AM 62.6 °F 62.6 °F 100% 29.86 in 0.2 mi Calm Calm - N/A Fog Fog
3:13 AM 62.6 °F 62.6 °F 100% 29.87 in 0.2 mi Calm Calm - N/A Fog Fog
3:58 AM 61.7 °F 61.7 °F 100% 29.87 in 0.2 mi NNW 3.5 mph - N/A Fog Fog
4:03 AM 62.6 °F 62.6 °F 100% 29.86 in 0.2 mi Calm Calm - N/A Fog Fog
4:18 AM 60.8 °F 60.8 °F 100% 29.86 in 0.5 mi West 2.3 mph - N/A Fog Fog
4:23 AM 60.8 °F 60.8 °F 100% 29.86 in 1.0 mi WNW 2.3 mph - N/A   Clear
4:33 AM 60.8 °F 60.8 °F 100% 29.86 in 0.5 mi West 3.5 mph - N/A Fog Fog
4:43 AM 62.6 °F 62.6 °F 100% 29.86 in 1.0 mi WSW 2.3 mph - N/A   Clear
4:48 AM 60.8 °F 60.8 °F 100% 29.87 in 1.2 mi Calm Calm - N/A   Clear
4:53 AM 60.8 °F 60.8 °F 100% 29.87 in 1.0 mi Calm Calm - N/A   Clear
4:58 AM 61.2 °F 61.2 °F 100% 29.88 in 0.8 mi Variable 1.2 mph - N/A   Clear
5:03 AM 60.8 °F 60.8 °F 100% 29.87 in 0.8 mi NW 1.2 mph - N/A   Clear
5:08 AM 60.8 °F 60.8 °F 100% 29.87 in 0.5 mi NW 1.2 mph - N/A Fog Fog
5:13 AM 60.8 °F 60.8 °F 100% 29.87 in 0.8 mi NW 1.2 mph - N/A   Clear
5:18 AM 60.8 °F 60.8 °F 100% 29.87 in 1.5 mi WNW 2.3 mph - N/A   Clear
5:23 AM 60.8 °F 60.8 °F 100% 29.87 in 0.8 mi Calm Calm - N/A   Clear
5:28 AM 60.8 °F 60.8 °F 100% 29.87 in 0.5 mi WNW 1.2 mph - N/A Fog Fog
5:48 AM 60.8 °F 60.8 °F 100% 29.88 in 0.8 mi Calm Calm - N/A   Clear
5:53 AM 60.8 °F 60.8 °F 100% 29.88 in 2.5 mi Calm Calm - N/A   Clear
5:58 AM 59.9 °F 59.9 °F 100% 29.90 in 4.0 mi Calm Calm - N/A   Clear
6:18 AM 59.0 °F 59.0 °F 100% 29.89 in 1.5 mi Calm Calm - N/A   Clear
6:23 AM 59.0 °F 59.0 °F 100% 29.89 in 0.8 mi Calm Calm - N/A   Clear
6:33 AM 59.0 °F 59.0 °F 100% 29.90 in 0.8 mi Calm Calm - N/A   Clear
6:38 AM 59.0 °F 59.0 °F 100% 29.90 in 0.5 mi Calm Calm - N/A Fog Fog
6:48 AM 60.8 °F 60.8 °F 100% 29.90 in 0.8 mi Calm Calm - N/A   Clear
6:53 AM 60.8 °F 60.8 °F 100% 29.90 in 0.5 mi Calm Calm - N/A Fog Fog
6:58 AM 60.3 °F 60.3 °F 100% 29.92 in 0.5 mi Calm Calm - N/A Fog Fog
7:13 AM 60.8 °F 60.8 °F 100% 29.91 in 0.2 mi Calm Calm - N/A Fog Fog
7:18 AM 59.0 °F 59.0 °F 100% 29.92 in 0.2 mi WNW 2.3 mph - N/A Fog Fog
7:23 AM 59.0 °F 59.0 °F 100% 29.92 in 0.2 mi WNW 2.3 mph - N/A Fog Fog
7:28 AM 60.8 °F 60.8 °F 100% 29.92 in 0.5 mi NW 1.2 mph - N/A Fog Fog
7:33 AM 60.8 °F 60.8 °F 100% 29.92 in 0.8 mi WNW 1.2 mph - N/A   Mostly Cloudy
7:38 AM 60.8 °F 60.8 °F 100% 29.92 in 1.5 mi WNW 2.3 mph - N/A   Mostly Cloudy
7:43 AM 60.8 °F 60.8 °F 100% 29.92 in 1.8 mi NW 2.3 mph - N/A   Overcast
7:48 AM 60.8 °F 60.8 °F 100% 29.92 in 4.0 mi Calm Calm - N/A   Overcast
7:58 AM 61.2 °F 61.2 °F 100% 29.93 in 8.0 mi WNW 1.2 mph - N/A   Overcast
8:28 AM 62.6 °F 62.6 °F 100% 29.92 in 10.0 mi West 1.2 mph - N/A   Scattered Clouds
8:58 AM 64.0 °F 64.0 °F 100% 29.94 in 10.0 mi Variable 1.2 mph - N/A   Clear
9:58 AM 71.6 °F 63.9 °F 76% 29.94 in 10.0 mi ESE 5.8 mph - N/A   Partly Cloudy
10:58 AM 74.7 °F 66.0 °F 74% 29.95 in 10.0 mi East 8.1 mph - N/A   Overcast
11:58 AM 76.1 °F 67.8 °F 75% 29.96 in 10.0 mi East 9.2 mph - N/A   Overcast
12:08 PM 77.0 °F 68.0 °F 74% 29.95 in 10.0 mi ESE 8.1 mph - N/A   Overcast
12:44 PM 75.2 °F 69.8 °F 83% 29.96 in 8.0 mi ESE 8.1 mph - N/A   Light Drizzle
12:57 PM 75.2 °F 69.8 °F 83% 29.95 in 10.0 mi ESE 9.2 mph - N/A   Overcast
12:58 PM 75.2 °F 69.8 °F 83% 29.96 in 10.0 mi ESE 9.2 mph - 0.00 in   Overcast
1:36 PM 73.4 °F 69.8 °F 88% 29.95 in 8.0 mi ESE 9.2 mph - N/A   Light Drizzle
1:46 PM 73.4 °F 71.6 °F 94% 29.95 in 4.0 mi East 5.8 mph - N/A   Light Drizzle
1:56 PM 73.4 °F 71.6 °F 94% 29.94 in 3.0 mi ESE 5.8 mph - N/A   Light Drizzle
1:58 PM 73.4 °F 71.6 °F 94% 29.95 in 3.0 mi East 4.6 mph - 0.01 in Rain Light Rain
1:59 PM 73.4 °F 71.6 °F 94% 29.94 in 3.0 mi East 4.6 mph - N/A Rain Light Rain
2:04 PM 73.4 °F 71.6 °F 94% 29.94 in 3.0 mi East 5.8 mph - N/A Rain Light Rain
2:24 PM 71.6 °F 71.6 °F 100% 29.94 in 3.0 mi East 3.5 mph - N/A   Light Drizzle
2:58 PM 71.2 °F 71.1 °F 99% 29.94 in 10.0 mi ENE 5.8 mph - 0.03 in   Light Drizzle
3:03 PM 71.6 °F 71.6 °F 100% 29.93 in 10.0 mi ENE 4.6 mph - N/A   Light Drizzle
3:08 PM 71.6 °F 71.6 °F 100% 29.93 in 10.0 mi Variable 5.8 mph - N/A   Light Drizzle
3:09 PM 71.6 °F 71.6 °F 100% 29.93 in 10.0 mi ENE 5.8 mph - N/A   Overcast
3:58 PM 71.8 °F 71.4 °F 99% 29.94 in 10.0 mi NE 4.6 mph - 0.00 in   Overcast
4:28 PM 71.6 °F 71.6 °F 100% 29.92 in 10.0 mi ENE 3.5 mph - N/A   Overcast
4:48 PM 71.6 °F 69.8 °F 94% 29.92 in 10.0 mi East 5.8 mph - N/A   Overcast
4:58 PM 71.4 °F 69.8 °F 95% 29.93 in 10.0 mi East 4.6 mph - N/A   Overcast
5:08 PM 71.6 °F 69.8 °F 94% 29.92 in 10.0 mi NE 4.6 mph - N/A   Overcast
5:47 PM 71.6 °F 69.8 °F 94% 29.93 in 8.0 mi East 8.1 mph - N/A Rain Light Rain
5:58 PM 70.7 °F 69.8 °F 97% 29.94 in 6.0 mi ESE 4.6 mph - 0.00 in Rain Light Rain
6:21 PM 69.8 °F 69.8 °F 100% 29.93 in 7.0 mi East 3.5 mph - N/A   Overcast
6:26 PM 69.8 °F 69.8 °F 100% 29.93 in 5.0 mi ESE 3.5 mph - N/A   Overcast
6:28 PM 69.8 °F 69.8 °F 100% 29.94 in 4.0 mi East 2.3 mph - N/A   Overcast
6:50 PM 69.8 °F 69.8 °F 100% 29.94 in 6.0 mi East 3.5 mph - N/A   Light Drizzle
6:58 PM 69.8 °F 69.6 °F 99% 29.95 in 3.0 mi NE 1.2 mph - 0.02 in Rain Light Rain
7:24 PM 69.8 °F 69.8 °F 100% 29.95 in 8.0 mi ENE 3.5 mph - N/A   Overcast
7:29 PM 69.8 °F 68.0 °F 94% 29.95 in 9.0 mi ENE 3.5 mph - N/A   Overcast
7:58 PM 68.5 °F 68.2 °F 99% 29.96 in 9.0 mi ENE 5.8 mph - 0.00 in   Overcast
8:23 PM 68.0 °F 68.0 °F 100% 29.95 in 8.0 mi East 10.4 mph - N/A   Overcast
8:35 PM 68.0 °F 68.0 °F 100% 29.95 in 5.0 mi East 3.5 mph - N/A   Light Drizzle
8:45 PM 68.0 °F 68.0 °F 100% 29.96 in 6.0 mi East 4.6 mph - N/A   Light Drizzle
8:50 PM 68.0 °F 68.0 °F 100% 29.96 in 9.0 mi Variable 4.6 mph - N/A   Overcast
8:55 PM 68.0 °F 68.0 °F 100% 29.96 in 10.0 mi East 4.6 mph - N/A   Overcast
8:58 PM 68.2 °F 67.8 °F 99% 29.97 in 9.0 mi East 4.6 mph - 0.01 in   Overcast
9:03 PM 68.0 °F 68.0 °F 100% 29.96 in 8.0 mi Variable 3.5 mph - N/A   Overcast
9:13 PM 68.0 °F 68.0 °F 100% 29.97 in 10.0 mi Variable 3.5 mph - N/A   Overcast
9:58 PM 68.0 °F 67.6 °F 99% 29.99 in 10.0 mi ENE 2.3 mph - N/A   Overcast
10:08 PM 68.0 °F 68.0 °F 100% 29.98 in 10.0 mi ENE 3.5 mph - N/A   Overcast
10:58 PM 68.4 °F 68.0 °F 99% 30.00 in 10.0 mi East 2.3 mph - N/A   Overcast
11:38 PM 68.0 °F 68.0 °F 100% 29.98 in 10.0 mi ENE 4.6 mph - N/A   Overcast
11:48 PM 68.0 °F 68.0 °F 100% 29.98 in 10.0 mi East 4.6 mph - N/A   Overcast
11:58 PM 68.5 °F 67.8 °F 98% 29.99 in 10.0 mi East 3.5 mph - N/A   Overcast